AirNav   ATP
 
 414 users online  

09W South Capitol Street Heliport
Washington, District of Columbia, USA

GOING TO WASHINGTON?


FAA INFORMATION EFFECTIVE 11 OCTOBER 2018

Location

FAA Identifier: 09W
Lat/Long: 38-52-07.4040N / 077-00-26.9130W
38-52.123400N / 077-00.448550W
38.8687233 / -77.0074758
(estimated)
Elevation: 10 ft. / 3.0 m (surveyed)
Variation: 09W (1985)
Time zone: UTC -4 (UTC -5 during Standard Time)
Zip code: 20398

Heliport Operations

Heliport use: Open to the public
Activation date: 04/1974
Control tower: no
ARTCC: WASHINGTON CENTER
FSS: LEESBURG FLIGHT SERVICE STATION
NOTAMs facility: DCA (NOTAM-D service available)
Attendance: MON-FRI 0700-1900, ALL SAT-SUN 1100-1900
OPEN HOLIDAYS UPON RESERVATION.
Wind indicator: lighted
Segmented circle: no
Beacon: white-green-yellow (heliport)
Operates sunset to sunrise.

Heliport Communications

CTAF/UNICOM: 123.05
WX ASOS at DCA (1.8 nm SW): 132.65 (703-412-8140)
WX AWOS-3 at CGS (8 nm NE): 121.225 (301-864-5497)
WX AWOS-3 at FME (17 nm NE): 123.925
WX AWOS-3PT at GAI (19 nm N): 128.275 (301-977-2971)

Nearby radio navigation aids

VOR radial/distance  VOR name  Freq  Var
DCAr077/1.5WASHINGTON VOR/DME111.0009W
ADWr309/7.6ANDREWS VORTAC113.1010W
OTTr318/15.7NOTTINGHAM VORTAC113.7010W
AMLr108/21.8ARMEL VOR/DME113.5008W
BALr233/24.3BALTIMORE VORTAC115.1011W
BRVr036/35.8BROOKE VORTAC114.5009W
FDKr160/(36.8)FREDERICK VOR109.0008W
EMIr190/37.6WESTMINSTER VORTAC117.9008W

 
NDB name  Hdg/Dist  Freq  Var  ID
OXONN020/6.233211WDCA -.. -.-. .-
GEORGETOWN133/6.632309WGTN --. - -.
DAVEE030/13.322309WDAA -.. .- .-
ELLICOTT214/27.337111WFND ..-. -. -..

Heliport Services

Fuel available: A
Airframe service: NONE
Powerplant service: NONE

Runway Information

Helipad H1

Dimensions: 60 x 60 ft. / 18 x 18 m
Surface: asphalt, in good condition
Runway edge lights: PERIMETER & RLLS LGTS.
Latitude: 38-52.123333N
Longitude: 077-00.448500W
Elevation: 10.0 ft.
Traffic pattern: leftleft

Heliport Ownership and Management from official FAA records

Ownership: Privately-owned
Owner: SOUTH CAPITOL STREET HELIPORT, LLC
115 VALLEYVIEW RD
FAIRFIELD, CT 06824
Phone 203-856-6407
Manager: DON SCIMONELLI
1724 S CAPITAL ST SE
WASHINGTON, DC 20003
Phone 202-484-8616

Heliport Operational Statistics

Aircraft based on the field: 1
Helicopters: 1
    
Aircraft operations: avg 33/month *
50% transient general aviation
50% local general aviation
* for 12-month period ending 05 December 1997

Additional Remarks

A52-H1 75 FT LGTD BRIDGE 500 FT E; + 50 FT STACK 400 FT W; +40 FT BLDG 60 FT NE.
INGRESS & EGRESS ROUTES NE & SW OVER ANACOSTIA RIVER.
LARGE LOOSE GRAVEL SOUTH & WEST OF PAVEMENT.
FOR CD CTC POTOMAC APCH AT 866-599-3874.

Instrument Procedures

There are no published instrument procedures at 09W.

Some nearby airports with instrument procedures:

KDCA - Ronald Reagan Washington National Airport (2 nm SW)
KADW - Joint Base Andrews (7 nm SE)
KVKX - Potomac Airfield (8 nm S)
KCGS - College Park Airport (8 nm NE)
W32 - Washington Executive Airport/Hyde Field (8 nm SE)
W00 - Freeway Airport (12 nm E)
KDAA - Davison Army Airfield (12 nm SW)
2W5 - Maryland Airport (17 nm S)
KFME - Tipton Airport (17 nm NE)
KGAI - Montgomery County Airpark (19 nm N)
 
Loc | Ops | Rwys | IFR | FBO | Links
Com | Nav | Svcs | Stats | Notes


 
Area around 09W (South Capitol Street Heliport)
 
Road maps at: MapQuest Bing Google
 
Aerial photo
WARNING: Photo may not be current or correct
Aerial photo of 09W (South Capitol Street Heliport)
Photo courtesy of Steven Bussman
Bussman Aviation
Photo taken 29-Apr-2012
looking northeast.

Do you have a better or more recent aerial photo of South Capitol Street Heliport that you would like to share? If so, please send us your photo.

 
Sectional chart

 
Airport distance calculator
Flying to South Capitol Street Heliport? Find the distance to fly.

From to 09W

Sunrise and sunset
Times for 17-Oct-2018
 Local
(UTC-4)
 Zulu
(UTC)
Morning civil twilight06:5410:54
Sunrise07:2011:20
Sunset18:2622:26
Evening civil twilight18:5322:53

Current date and time
Zulu (UTC)  17-Oct-2018 06:38:28
Local (UTC-4)  17-Oct-2018 02:38:28
 
METAR
KDCA 
2nm SW 
170552Z 22004KT 10SM OVC029 14/09 A3009 RMK AO2 SLP188 T01390094 10144 20133 56009
KADW 
7nm SE 
170556Z AUTO 21005KT 10SM BKN027 BKN220 12/09 A3007 RMK AO2 CIG 026 RWY19L SLP189 T01240089 10129 20116 57010 $
KVKX 
8nm S 
SuperAWOS
170615Z AUTO 00000KT 10SM 12/11 A3008
KCGS 
8nm NE 
170602Z AUTO 00000KT 10SM BKN028 11/10 A3007 RMK AO1 T01140100
KDAA 
12nm SW 
170556Z AUTO 00000KT 10SM OVC025 13/13 A3008 RMK AO2 SLP189 T01260126 10129 20115 58013 TSNO $
KFME 
17nm NE 
170603Z AUTO 00000KT 10SM BKN031 11/10 A3010 RMK AO1
KGAI 
19nm N 
170556Z AUTO 00000KT 10SM CLR 09/09 A3008 RMK AO2 SLP218 T00940089 10122 20094 58010
TAF
KDCA 
2nm SW 
170532Z 1706/1812 VRB03KT P6SM BKN130 FM171300 29007KT P6SM SKC FM171600 28011G19KT P6SM SKC FM171900 29013G27KT P6SM SKC FM172300 31013G20KT P6SM SKC FM180300 32011KT P6SM FEW050
KADW 
7nm SE 
170100Z 1701/1807 VRB06KT 9999 FEW150 QNH3002INS BECMG 1714/1715 29020G30KT 9999 SKC 510003 QNH3006INS BECMG 1720/1721 29015G20KT 9999 FEW045 QNH3009INS BECMG 1800/1801 30009KT 9999 FEW030 QNH3012INS TX17/1717Z TN11/1711Z
KDAA 
12nm SW 
170100Z 1701/1807 30006KT 9999 FEW150 QNH3002INS BECMG 1714/1715 29020G30KT 9999 SKC 510003 QNH3006INS BECMG 1720/1721 29012G18KT 9999 FEW050 QNH3009INS BECMG 1800/1801 30009KT 9999 FEW030 QNH3012INS TX15/1717Z TN09/1711Z LAST NO AMDS AFT 1701 NEXT 1709
NOTAMs
Click for the latest NOTAMs
NOTAMs are issued by the DoD/FAA and will open in a separate window not controlled by AirNav.

 

 
 

FBO, Fuel Providers, and Aircraft Ground Support

  
 Business Name 
 
 Contact 
 
 Services / Description 
 
Fuel Prices
 
Comments
  
South Capitol Street Heliport FBO UNICOM 123.05
202-484-8616
202-527-8687
[email]

Like us on facebook
Airport management, Aviation fuel, Aircraft parking (ramp or tiedown), Hangars, Hangar leasing / sales, Passenger terminal and lounge, ...
 
U.S. Government AIR Card  
 
More info about South Capitol Street Heliport FBO
independent
Jet A
AS $7.78 
 Updated 25-Jan-2018
 
   write
AS=Assisted/Self Service
Update Fuel Prices
 

Would you like to see your business listed on this page?

 If your business provides an interesting product or service to pilots, flight crews, aircraft, or users of the South Capitol Street Heliport, you should consider listing it here.  To start the listing process, click on the button below
 
Add a business
 

Other Pages about South Capitol Street Heliport

Update a link
 
Copyright © AirNav, LLC. All rights reserved. Privacy Policy  Contact